[ hide orbit diagram ]
For accurate long-term ephemerides, please instead use our Horizons system.This orbit viewer was implemented using two-body methods, and hence should not be used for determining accurate long-term trajectories (over several years or decades) or planetary encounter circumstances.
Orbital Elements at Epoch 2459000.5 (2020-May-31.0) TDB
Reference: JPL 37 (heliocentric ecliptic J2000)
Element | Value | Uncertainty (1-sigma) | Units |
e | .02201969278950257 | 2.8122e-08 | |
a | 2.781113827563949 | 9.7175e-09 | au |
q | 2.719874555468353 | 7.969e-08 | au |
i | 4.059144309318052 | 3.6027e-06 | deg |
node | 359.1594921471251 | 4.1949e-05 | deg |
peri | 101.5013258758621 | 9.7798e-05 | deg |
M | 215.3727337030182 | 8.9821e-05 | deg |
tp | 2459681.072270445036 (2022-Apr-11.57227045) | 0.00042391 | TDB |
period | 1694.051361360247 4.64 | 8.8788e-06 2.431e-08 | d yr |
n | .2125083148074897 | 1.1138e-09 | deg/d |
Q | 2.842353099659545 | 9.9315e-09 | au |
|
| | Orbit Determination Parameters
Additional Information
|
[ show covariance matrix ]
Physical Parameter Table
Parameter |
Symbol |
Value |
Units |
Sigma |
Reference |
Notes |
absolute magnitude |
H |
13.0 |
|
n/a |
MPO263372 |
|
diameter |
diameter |
14.867 |
km |
4.650 |
urn:nasa:pds:neowise_diameters_albedos::2.0[mainbelt] (http://adsabs.harvard.edu/abs/2016AJ....152...63N) |
|
geometric albedo |
albedo |
0.050 |
|
0.075 |
urn:nasa:pds:neowise_diameters_albedos::2.0[mainbelt] (http://adsabs.harvard.edu/abs/2016AJ....152...63N) |
|
SMASSII spectral type |
spec_B |
C |
|
n/a |
EAR-A-5-DDR-TAXONOMY-V4.0 |
based on a high-resolution spectrum by Xu et al. (1995) or Bus and Binzel (2002) |
|
2930 Euripides (6554 P-L) Discovered 1960-Sep-24 by PLS at Palomar |
These planets have all been discovered as a result of the Palomar survey of faint minor planets and subsequently identified with planets observed at other oppositions. In Sept. and Oct. 1960, T. Gehrels exposed 130 plates with the 122 cm Schmidt camera at Palomar. In the following years C. J. van Houten and I. van Houten-Groeneveld measured these plates astrometrically and photometrically at Leiden. P. Herget, Cincinnati, computed the orbits of the planets found on the NORC computer, Dahlgren, Virginia, USA. |
Note: "planet" implies "minor planet" |
Reference: DISCOVERY.DB | Last Updated: 2003-08-29 |
|
[ show close-approach data ]
Alternate Designations
6554 P-L = 1979 UX = 1983 PO |
|
|